Theta_e
356 356 355 355 355 354 354 353 351 350 352 354 355 354 354 354 355 355 354 353 352 352 353 354 355 352 349 349 349 345 344 345 346 347 349 346 343 342 342 342 343 343 347 350 352 352 353 353 354 354 356 355 354 356 358 358 358 357 357 356 356 356 356
355 355 354 355 355 356 355 353 352 351 352 353 354 354 355 355 355 356 355 354 353 352 352 353 355 353 349 348 349 347 345 346 346 346 348 347 344 342 339 340 342 343 344 346 348 350 349 351 354 354 354 355 354 353 356 358 359 358 358 357 356 356 356
354 355 354 355 355 355 355 353 352 352 352 353 355 355 354 354 355 355 355 356 354 353 352 352 353 354 351 348 348 348 346 346 347 346 346 346 345 343 341 339 339 341 343 345 346 347 347 349 353 354 353 354 354 353 354 356 358 358 358 358 357 355 354
354 355 354 354 355 355 354 353 353 354 354 354 355 356 355 354 355 355 355 356 355 354 353 351 351 353 352 350 348 349 348 346 346 346 345 344 344 343 343 342 339 339 342 344 346 347 346 348 351 353 353 353 354 354 354 355 357 358 358 359 359 357 355
354 354 353 353 355 355 356 354 355 354 355 355 356 356 355 354 354 355 355 356 356 355 354 352 350 351 352 351 349 348 348 347 346 345 344 342 342 343 344 345 342 341 340 341 345 347 346 346 348 351 353 353 353 354 354 355 357 359 358 358 360 359 357
354 352 353 355 355 356 357 356 355 356 355 357 356 357 356 355 355 355 355 357 357 356 356 354 352 351 351 351 350 348 348 347 346 344 343 342 340 341 342 344 345 346 344 342 344 347 349 348 347 348 351 351 352 354 355 355 357 359 359 358 359 359 357
353 352 354 356 356 356 356 357 357 357 357 357 356 356 356 355 355 355 356 357 358 357 357 356 353 352 351 351 350 349 348 348 346 345 343 342 341 339 339 340 343 345 347 347 346 346 348 350 350 348 349 349 351 353 354 356 357 358 359 359 359 359 357
353 354 355 354 354 356 356 357 357 357 356 356 356 357 357 356 355 355 356 357 358 359 358 357 356 354 353 352 351 350 348 348 346 345 344 342 341 340 339 338 339 341 345 348 349 348 346 347 349 349 350 350 351 352 353 356 357 358 359 359 359 360 358
354 354 353 353 352 353 355 356 357 358 356 356 355 356 356 356 355 355 356 357 359 361 359 359 358 356 354 353 352 351 349 347 347 346 345 344 342 341 340 339 338 339 342 345 347 350 349 346 345 348 351 351 351 352 353 355 357 358 358 359 359 359 358
355 355 354 353 352 353 354 355 358 357 356 356 355 356 357 357 356 356 356 357 359 361 361 361 360 358 357 355 354 353 351 349 348 346 345 345 343 342 341 340 339 339 340 343 344 347 350 349 346 346 350 353 352 353 353 354 356 358 357 357 357 358 358
353 355 355 353 353 355 356 356 359 358 357 357 357 358 358 358 358 357 356 357 359 361 362 363 362 361 359 358 357 356 353 350 349 347 346 346 344 343 342 342 341 341 340 343 346 347 349 351 349 348 350 353 353 353 353 354 355 357 357 356 356 357 358
354 354 355 354 354 356 358 358 358 358 358 357 357 359 359 359 358 358 357 357 358 361 363 364 364 363 362 360 360 358 356 354 351 349 347 346 345 344 344 344 344 344 344 344 347 349 350 351 351 350 350 353 354 354 355 355 356 357 356 356 356 357 357
353 353 355 356 355 355 357 356 358 359 358 357 357 359 359 359 359 357 357 357 357 359 362 363 364 364 364 363 361 360 359 356 354 353 350 348 347 346 346 346 346 347 347 347 348 351 352 352 352 352 351 353 354 355 356 356 356 356 356 355 355 356 358
349 351 352 355 357 360 359 357 357 360 358 357 358 358 360 360 358 358 358 357 357 357 360 362 364 364 365 364 363 361 360 358 357 355 353 351 350 349 349 348 348 349 350 350 351 352 353 353 354 353 353 353 354 355 356 357 357 356 355 354 354 356 357
347 348 349 349 352 358 362 362 362 362 359 355 356 357 359 359 359 357 357 357 357 358 357 360 363 364 365 364 363 363 361 360 358 357 356 354 352 351 350 350 349 350 352 353 352 352 354 354 355 355 354 354 355 355 356 358 358 357 356 355 354 354 355
343 345 346 346 347 349 352 357 362 367 367 361 356 356 357 358 358 358 358 357 357 357 358 359 361 364 365 365 365 364 362 360 359 359 357 356 354 353 352 352 351 351 352 355 354 354 354 354 356 356 356 356 357 357 358 358 358 358 356 355 354 354 355
340 341 342 342 343 344 345 348 351 359 364 361 357 358 358 357 358 357 358 358 357 358 358 359 361 363 365 365 366 364 364 361 360 360 358 358 356 355 354 354 353 353 354 356 356 356 355 355 356 356 356 356 357 357 358 359 359 359 357 356 355 354 355
337 338 339 339 340 341 342 343 345 348 354 357 357 357 358 358 359 358 357 357 357 358 359 358 360 362 364 365 365 365 364 362 361 360 359 359 358 356 355 355 354 355 356 357 358 357 356 356 357 357 357 357 357 358 358 358 359 359 359 357 356 355 355
333 334 335 336 338 339 340 341 343 344 347 351 352 353 355 356 357 358 358 358 358 358 357 357 358 360 363 365 365 365 364 363 361 361 360 359 359 358 357 356 356 356 356 357 358 358 357 358 357 357 358 358 358 358 359 359 359 359 359 358 357 356 355
330 330 331 332 334 336 336 338 341 341 342 344 346 349 354 354 355 356 357 357 357 358 357 357 356 356 360 364 365 365 365 363 362 361 361 360 360 359 358 356 357 357 356 358 359 359 358 359 358 357 358 358 358 358 359 360 359 359 360 360 360 358 356
329 328 329 329 331 333 334 335 336 337 339 340 342 345 349 353 355 355 353 353 355 356 356 358 358 357 358 362 365 365 365 364 363 361 362 361 360 360 359 358 357 357 357 357 358 359 359 359 358 357 358 359 359 359 359 360 360 360 361 360 360 360 358
326 326 327 328 329 330 331 332 333 334 337 338 340 342 345 348 352 354 356 354 353 354 355 356 357 358 358 360 364 365 364 364 363 362 362 361 361 361 360 359 358 357 358 358 357 359 359 359 359 358 357 359 359 360 360 361 361 361 361 361 361 361 361
323 324 325 326 327 328 328 329 330 332 334 336 337 340 343 346 347 350 355 356 354 353 355 356 356 356 357 360 364 365 365 364 363 363 362 362 362 361 361 360 358 358 358 358 358 359 359 359 359 359 358 358 359 361 361 361 361 362 362 361 361 361 362
321 322 324 325 325 326 326 327 328 329 332 334 336 338 340 342 343 346 351 356 357 355 354 355 357 357 358 361 364 365 365 364 363 363 363 362 362 361 362 361 359 358 358 358 358 358 358 359 359 359 358 358 358 359 360 361 361 361 361 362 361 361 361
322 321 322 323 324 324 324 325 327 327 329 331 333 335 337 338 341 344 348 353 358 358 355 355 357 357 359 361 364 365 365 364 364 364 363 362 362 361 362 362 361 359 358 358 358 357 358 359 359 358 359 358 357 357 358 359 360 361 361 360 360 360 360
322 320 320 321 322 323 323 324 325 326 327 329 331 332 334 336 339 343 346 350 354 358 358 356 356 357 359 361 363 365 365 365 364 363 363 363 363 362 362 362 361 360 359 359 359 358 358 359 359 360 359 359 359 358 357 357 358 359 360 360 360 360 360
322 320 319 320 321 322 322 323 324 325 326 327 328 330 332 334 337 341 345 348 351 355 359 359 356 356 358 363 364 365 366 366 365 364 363 364 363 363 362 362 363 362 360 360 359 358 358 358 359 360 360 359 360 360 359 358 358 358 358 359 359 359 359
323 321 320 319 320 320 321 323 324 324 325 326 327 328 331 333 335 339 342 346 350 354 358 361 360 356 356 361 365 366 366 366 365 365 364 364 364 364 364 363 363 363 361 361 360 359 358 359 359 360 361 362 361 361 361 360 360 358 358 358 359 359 358
323 322 320 319 319 320 321 323 323 323 323 324 326 328 329 331 334 336 340 344 347 351 357 363 364 359 354 358 363 365 366 367 367 366 366 365 365 365 365 365 364 364 363 361 360 360 359 359 360 361 362 362 362 362 362 362 361 360 360 358 359 359 358
322 322 321 320 319 320 321 322 322 322 323 324 325 327 328 330 333 335 338 341 344 349 358 366 367 361 355 357 361 364 366 367 368 367 366 366 367 366 366 365 365 364 364 362 361 360 360 359 361 362 363 363 363 364 362 362 362 362 361 360 360 359 358
322 321 321 321 320 320 322 322 322 322 322 323 324 326 327 329 332 334 337 340 343 349 358 367 370 362 355 357 362 364 366 367 368 368 368 367 368 368 367 367 367 366 365 365 363 362 361 360 361 361 362 363 364 364 363 363 363 362 362 362 360 360 359
322 322 322 321 320 321 322 322 322 322 323 323 324 326 327 329 331 333 335 339 344 351 361 369 372 364 356 359 362 363 366 368 369 369 369 369 369 369 368 367 368 368 367 366 364 363 362 362 360 360 361 362 362 364 363 363 363 363 363 363 362 361 360
322 322 322 321 321 321 322 322 322 322 322 323 324 326 327 328 331 334 337 342 350 358 363 368 370 365 360 362 364 364 366 369 369 370 370 370 370 370 369 369 368 369 369 368 366 365 364 363 362 360 360 360 361 363 364 363 363 364 363 363 363 363 362
321 322 322 321 321 322 322 322 321 321 322 323 324 325 326 329 332 338 343 350 356 360 360 365 369 365 362 364 366 366 367 368 370 370 371 371 370 370 370 370 370 369 370 369 368 366 365 364 363 361 360 359 359 361 362 363 363 363 363 363 362 363 362
320 321 322 321 321 322 322 321 321 322 322 323 324 325 327 330 335 341 348 354 357 356 358 364 368 365 364 366 366 366 368 369 369 371 370 371 371 371 371 371 369 369 370 369 369 368 366 365 364 362 361 359 358 359 360 361 361 362 362 361 361 361 362
320 321 321 321 321 322 320 320 320 321 322 323 325 327 329 333 337 344 351 355 355 355 356 362 368 366 365 368 367 367 369 370 370 371 371 371 370 370 371 371 370 370 369 369 370 369 368 367 365 363 361 360 359 359 359 359 360 361 361 360 360 359 360
320 321 321 322 322 321 320 319 320 321 322 324 326 328 331 334 338 343 350 354 355 355 355 359 364 368 368 369 369 368 368 369 370 370 371 371 372 371 369 367 366 367 369 369 370 370 369 367 365 364 363 362 361 360 359 358 359 361 362 362 362 360 360
320 321 321 322 322 320 319 319 320 320 322 325 327 328 330 333 337 341 346 351 353 354 354 355 359 364 365 366 367 366 366 367 367 364 360 361 364 367 366 363 361 361 364 366 369 370 370 368 367 365 364 363 361 361 361 359 359 360 361 362 362 362 362
Wind_Speed
18 17 17 15 16 17 16 16 20 25 27 30 32 34 36 37 37 37 37 40 42 40 40 39 40 42 42 40 39 40 40 37 35 34 32 34 34 31 29 28 28 27 26 27 26 24 22 21 21 21 20 19 18 18 16 15 14 13 13 12 11 11 11
18 17 18 17 16 17 18 18 21 25 27 29 32 33 35 36 38 37 38 41 43 42 42 41 41 42 44 43 40 40 41 39 37 36 34 34 35 34 32 30 29 29 29 28 27 25 23 21 22 22 22 21 20 19 19 18 17 17 15 15 15 14 13
19 18 18 18 17 18 18 19 21 26 28 29 32 34 35 37 39 40 39 41 43 43 43 42 42 42 43 43 41 41 42 40 39 38 37 35 34 33 33 33 32 31 30 29 28 26 24 23 23 23 23 23 22 20 20 20 19 18 18 16 16 15 15
21 21 20 20 19 18 18 18 21 26 29 31 35 37 38 38 39 40 40 42 43 42 43 43 42 41 41 42 42 42 42 42 41 40 40 38 36 33 33 33 34 33 31 29 28 27 25 25 25 25 24 24 24 22 21 21 21 19 18 17 16 15 15
22 21 19 18 17 16 16 17 22 27 30 32 35 38 40 39 38 39 39 41 44 44 44 44 42 41 40 41 42 42 43 44 43 42 41 39 38 35 33 33 33 33 33 31 29 27 27 27 27 27 27 26 25 24 22 22 22 21 20 19 18 17 15
19 19 17 16 16 17 17 18 24 30 32 33 35 36 38 38 37 38 38 39 42 43 42 42 42 41 41 41 41 40 41 43 43 42 41 40 39 38 36 35 34 33 33 32 31 29 28 28 28 29 29 28 27 26 24 23 23 23 21 20 20 19 18
18 17 17 17 17 17 18 19 24 31 34 34 35 35 37 37 37 37 37 37 40 41 41 41 42 42 41 41 41 40 41 42 43 42 42 40 40 40 40 38 36 35 33 32 32 32 30 28 29 30 30 30 29 28 27 25 25 25 23 22 22 22 20
20 19 17 18 18 18 19 17 21 28 31 32 32 32 34 36 36 36 36 36 38 39 41 42 42 42 42 42 41 41 41 42 43 42 42 41 40 41 41 40 39 37 35 34 33 33 33 32 30 30 31 32 31 31 29 28 27 26 26 24 24 24 23
23 21 19 19 18 18 17 17 21 26 28 30 31 32 34 35 36 36 36 36 37 38 41 42 42 43 42 41 42 42 42 41 42 43 42 42 41 41 42 42 41 40 37 36 35 33 34 34 33 31 32 33 33 32 31 30 28 28 28 27 26 25 25
22 20 20 20 18 17 16 16 19 21 23 27 29 30 33 34 35 36 35 35 37 39 41 41 41 41 41 42 42 42 41 41 42 43 43 42 42 42 42 41 41 40 39 38 36 35 34 34 35 34 32 34 34 33 32 31 30 30 30 30 29 27 26
17 21 19 19 17 16 16 16 16 16 18 24 26 29 32 33 34 36 35 35 36 39 40 40 39 39 40 41 41 40 41 42 42 42 44 44 43 42 42 41 40 40 40 38 37 36 36 35 35 36 34 35 35 35 33 33 32 32 32 31 30 29 28
8 16 17 20 21 17 15 15 15 15 18 23 26 28 31 32 34 36 36 35 35 36 38 39 38 38 38 39 40 40 41 42 42 43 45 45 44 42 42 41 39 39 39 39 38 36 36 37 37 37 37 36 36 36 35 34 33 33 33 33 31 30 29
12 7 5 7 13 17 18 17 17 17 19 24 28 30 31 33 34 36 36 37 36 35 36 37 38 37 37 37 38 40 41 42 43 43 44 45 44 43 42 41 40 39 40 40 39 37 36 37 38 39 39 38 37 37 36 35 35 35 35 34 32 31 30
19 18 17 14 8 2 12 16 18 19 19 23 27 28 30 33 35 37 37 38 37 35 35 36 36 37 37 36 37 38 40 42 43 43 43 44 44 43 42 42 41 40 40 40 40 39 38 37 38 39 39 39 38 37 36 36 36 36 36 35 34 32 30
20 20 19 18 18 15 8 2 5 10 14 20 25 27 28 30 32 34 35 36 36 35 35 35 35 36 35 35 37 40 41 41 41 42 42 42 43 43 42 42 42 41 40 40 40 40 39 38 38 38 39 38 38 37 36 36 36 37 37 36 35 34 31
19 19 18 17 17 17 15 13 10 6 2 4 10 15 20 24 28 31 32 34 34 34 35 35 35 36 36 36 37 39 39 40 39 40 41 41 43 44 43 42 42 42 40 40 41 40 40 38 37 38 39 38 38 37 35 35 36 37 38 37 36 35 33
18 17 16 17 16 15 14 15 14 13 11 9 7 2 3 9 18 26 29 31 33 33 35 36 35 34 35 36 37 37 37 38 39 39 40 42 43 44 44 42 41 42 41 41 41 40 40 39 37 37 39 38 37 37 36 35 35 36 38 38 37 36 34
17 16 16 16 15 15 15 15 14 13 12 11 10 8 5 2 7 18 23 23 23 20 21 26 31 34 36 35 34 36 37 37 38 39 40 41 43 43 44 43 41 42 41 40 41 40 40 39 38 37 38 38 37 37 37 36 36 36 37 38 38 37 35
16 16 16 15 15 15 15 12 12 14 16 16 15 11 7 3 3 11 17 17 15 11 6 11 19 24 31 35 34 35 38 38 38 39 40 41 42 42 43 42 41 42 42 41 41 41 40 40 39 37 37 38 37 37 37 37 37 37 37 38 38 39 38
15 15 15 14 15 15 13 12 14 19 22 22 20 18 12 5 3 8 10 10 14 18 16 14 20 24 25 31 37 37 38 38 38 39 40 40 41 40 41 42 42 42 42 40 40 40 41 41 40 38 36 37 38 37 36 37 38 38 37 37 38 39 39
14 15 15 14 14 13 12 14 16 19 23 26 26 24 21 14 8 4 5 8 12 18 24 26 28 30 30 31 36 38 39 40 40 39 39 39 39 39 41 42 42 41 40 39 39 40 41 41 40 39 37 36 37 38 36 36 38 38 38 37 37 38 40
14 15 14 14 15 14 15 18 19 19 20 22 24 24 24 23 20 15 11 17 21 23 27 30 33 37 36 34 35 39 41 42 41 40 39 38 38 39 40 41 42 40 39 38 37 38 39 40 40 40 38 36 36 37 37 36 37 38 38 38 37 38 39
14 14 15 17 19 19 21 23 23 24 23 21 21 20 20 22 24 22 17 17 25 29 30 30 32 36 37 35 37 41 42 43 43 41 39 39 38 39 40 40 41 40 38 37 36 36 37 38 38 39 39 37 35 36 37 37 37 38 38 38 38 38 39
15 16 17 20 21 22 24 26 25 26 26 24 22 21 20 23 26 26 23 18 18 25 30 30 32 36 37 36 38 42 43 43 43 42 40 40 40 40 39 39 39 39 39 37 36 35 36 37 36 37 39 39 38 36 35 36 37 38 38 38 38 38 40
16 19 20 21 21 22 24 26 25 26 26 25 24 25 24 25 27 26 24 22 19 17 24 30 34 38 39 38 39 42 43 43 43 42 42 41 41 40 39 38 38 38 39 37 36 34 33 34 35 35 36 38 39 38 36 34 35 37 38 38 38 38 40
13 18 21 21 23 24 24 25 25 24 24 25 27 28 26 24 24 24 25 25 22 20 21 27 35 39 38 36 37 39 41 42 43 43 43 42 41 40 38 37 36 36 38 37 35 33 32 33 34 34 34 36 36 38 38 37 34 34 36 37 38 39 41
13 18 21 22 24 26 25 24 24 23 23 26 29 29 26 24 22 23 25 25 24 24 24 25 30 34 33 31 33 37 39 40 42 43 43 42 40 38 37 37 36 36 37 36 35 33 32 32 33 33 33 35 35 35 37 38 37 36 35 35 36 39 41
15 17 19 22 24 26 25 24 24 24 24 26 29 28 26 25 24 25 25 24 26 29 29 27 27 30 31 29 31 35 37 39 41 41 40 39 38 37 37 37 36 36 36 36 35 34 33 32 32 32 32 33 34 35 35 37 38 39 38 37 36 36 39
12 13 17 21 23 25 25 23 23 24 24 25 27 28 26 25 25 27 25 25 29 32 30 29 29 31 34 33 32 35 36 37 38 38 38 37 38 38 37 36 36 35 35 36 35 34 33 32 31 31 31 31 32 34 34 35 37 39 40 40 38 37 38
11 12 15 19 22 25 25 23 23 24 24 24 27 29 28 25 26 27 28 31 34 32 29 30 33 33 37 37 35 36 37 37 38 38 37 37 37 37 36 35 35 35 35 36 35 33 32 32 31 30 30 30 30 32 34 35 36 38 41 42 41 40 40
11 11 14 19 22 24 24 23 24 24 23 25 29 30 29 27 26 27 31 35 37 33 30 32 33 34 38 38 37 37 37 36 37 37 37 37 37 36 36 35 34 33 33 35 34 33 31 31 31 29 29 29 30 31 33 35 36 38 41 42 42 43 42
12 12 15 18 21 23 24 24 24 24 24 26 30 33 35 32 28 28 33 38 38 34 33 35 34 34 38 38 37 38 37 35 36 36 36 36 36 36 35 35 33 32 32 32 33 33 32 31 31 30 28 29 30 31 33 35 36 38 40 42 42 43 42
12 14 15 18 21 23 25 24 22 23 25 27 30 37 41 40 38 36 36 37 35 32 34 37 33 32 36 36 36 37 37 35 35 34 34 34 34 33 33 34 34 32 31 32 32 32 31 30 30 30 29 28 29 30 32 34 35 36 39 42 43 43 43
12 15 16 19 21 21 22 23 21 23 25 27 32 41 45 44 44 43 38 33 30 30 34 33 30 32 34 34 35 35 35 36 35 33 32 32 32 31 31 33 35 34 35 36 35 34 33 32 32 32 33 32 31 30 30 31 33 36 39 42 44 44 45
13 15 16 19 20 20 21 23 22 23 25 28 36 45 46 44 42 38 32 29 28 29 31 26 24 32 32 32 33 32 32 32 31 31 31 30 31 33 34 35 36 36 36 38 39 38 38 36 36 38 39 38 36 33 29 29 33 39 42 44 43 43 45
13 13 15 18 19 19 22 24 24 24 27 31 38 44 42 39 37 34 30 28 27 27 26 21 16 25 27 27 28 29 29 29 29 31 32 31 31 32 32 34 36 36 35 35 38 41 41 39 38 39 39 37 37 37 36 34 34 36 38 40 40 41 41
13 11 13 16 17 18 22 26 26 25 27 31 36 38 36 33 33 32 29 27 25 23 23 18 11 14 20 22 24 26 27 27 26 26 29 31 32 32 30 29 31 33 33 33 34 38 40 39 38 37 36 35 35 37 38 37 33 30 30 33 35 37 38
15 12 12 14 14 16 21 24 24 25 27 30 33 35 35 33 32 32 30 27 24 22 20 17 13 11 16 20 23 25 27 25 21 16 15 18 21 25 28 28 25 24 26 28 31 34 37 39 37 35 35 36 35 35 36 36 33 30 29 29 29 31 33
Wind_Direction
186 187 186 187 187 189 189 184 183 184 181 180 182 183 182 183 184 184 185 187 189 190 189 188 188 188 190 192 193 192 192 194 193 190 190 192 194 192 191 192 192 193 194 194 195 199 203 203 205 207 210 214 210 205 207 207 205 202 200 207 205 191 190
185 188 188 189 188 189 190 186 184 183 183 182 182 183 183 184 185 185 186 187 190 191 190 190 189 189 191 192 193 194 193 194 194 193 192 193 195 197 197 197 196 197 199 201 203 205 208 207 207 209 211 216 218 210 206 208 209 207 204 206 211 207 201
186 189 187 188 188 187 187 186 185 185 185 184 184 185 186 186 187 187 187 187 189 191 192 192 192 191 192 193 193 195 195 195 195 195 195 195 196 199 200 202 203 202 203 205 208 210 212 210 209 212 213 215 219 217 211 211 212 212 210 208 212 214 211
186 189 188 187 186 184 184 185 185 186 187 186 186 187 188 188 188 188 188 188 189 190 192 194 193 193 194 194 195 196 197 197 198 197 198 198 197 199 201 203 206 207 206 207 210 213 213 212 211 213 216 216 218 218 215 214 213 214 213 209 211 215 217
188 188 187 186 184 182 184 186 186 187 187 187 186 188 189 189 189 189 189 189 189 191 193 194 194 194 196 197 197 198 198 199 200 200 201 200 200 200 201 203 206 208 209 209 210 214 215 214 214 215 216 216 217 218 217 216 215 216 214 209 208 213 217
190 188 185 184 182 183 184 185 186 188 188 188 187 187 188 189 189 190 190 189 189 191 192 193 194 195 197 199 200 201 200 201 202 202 203 203 203 202 203 205 206 207 209 210 210 212 215 215 215 215 215 216 217 217 217 216 215 216 216 211 209 211 214
187 186 185 184 182 182 184 184 185 187 189 189 188 187 187 189 190 191 192 191 190 190 191 193 195 196 197 200 202 203 203 202 203 204 205 205 205 205 206 207 208 208 209 210 210 210 212 214 215 215 215 216 216 217 218 217 216 216 216 213 211 213 214
184 184 184 185 183 182 183 183 183 185 187 188 187 186 187 189 191 192 193 193 190 189 191 193 195 196 197 200 202 204 205 204 204 204 205 206 207 208 209 209 210 211 210 210 212 212 212 214 217 217 215 214 215 216 217 218 217 216 216 216 215 214 215
180 181 183 184 182 182 185 182 180 183 186 188 188 186 187 190 193 194 194 193 191 190 192 194 196 197 197 199 202 205 206 205 205 205 205 206 207 208 210 211 212 212 212 212 213 213 214 215 217 219 217 214 214 214 215 217 218 217 217 218 218 217 216
178 178 182 184 181 181 184 180 178 181 185 188 188 187 188 190 192 193 194 192 190 191 193 194 196 198 197 199 202 204 206 206 206 205 204 205 207 208 210 211 212 212 213 213 213 213 214 215 216 219 218 214 212 213 214 215 218 219 219 220 221 220 219
180 178 179 179 180 181 180 178 177 179 182 185 185 185 188 191 191 192 194 193 191 191 192 193 195 198 199 200 202 203 205 206 206 205 205 205 206 208 209 210 211 212 212 212 213 212 213 214 215 217 218 215 212 212 213 215 217 218 218 220 221 222 222
153 175 179 179 179 178 176 178 178 179 180 182 183 183 185 189 191 192 194 195 193 191 190 192 194 198 200 200 200 202 205 206 206 206 206 205 206 206 207 208 209 210 211 212 212 212 212 213 214 214 216 216 214 212 213 214 216 217 218 218 219 221 222
55 79 109 164 181 179 176 177 178 180 182 183 185 184 184 188 192 194 195 196 197 195 192 192 194 198 200 200 200 201 204 206 207 207 206 206 206 206 206 207 208 209 210 211 211 212 212 213 213 213 214 215 214 213 213 213 215 217 218 218 218 220 221
39 43 44 37 21 167 179 180 180 181 181 184 185 184 185 189 193 196 197 197 198 198 196 196 197 199 200 199 199 201 204 206 207 208 207 206 206 206 206 207 207 208 210 210 211 211 211 212 213 213 213 215 214 214 213 213 214 216 217 218 218 219 220
34 36 40 38 28 24 26 41 181 185 184 185 186 185 186 190 192 196 199 199 200 200 200 199 200 202 202 200 200 202 204 206 206 207 207 206 205 206 206 207 207 207 208 209 210 211 211 212 213 212 212 213 214 214 213 213 214 215 217 218 218 217 219
32 31 31 33 34 31 21 14 19 25 51 171 185 187 190 193 194 195 197 199 200 201 201 201 202 203 203 203 203 203 203 204 206 206 206 205 205 205 205 206 206 206 207 208 209 209 210 210 211 211 211 211 212 212 212 213 214 216 218 219 219 217 217
26 24 24 25 28 28 19 11 15 21 22 20 24 64 176 198 199 199 199 200 203 204 202 202 203 205 207 207 205 202 202 203 204 205 205 205 205 205 205 205 205 205 206 206 207 207 208 208 209 210 210 210 211 211 211 213 214 215 218 220 220 219 217
21 18 17 18 20 22 18 8 3 6 7 6 15 37 53 70 193 197 198 199 202 206 208 209 209 208 210 211 208 202 201 203 204 204 205 206 205 204 204 204 204 204 204 205 205 205 205 206 208 209 209 209 210 211 212 213 214 215 218 220 221 221 220
18 14 12 12 13 13 11 4 353 351 354 357 3 11 20 29 179 186 187 189 188 185 219 263 253 235 219 211 207 203 202 202 203 205 205 206 206 205 204 203 204 204 204 204 204 203 204 205 206 207 207 207 208 210 212 214 215 216 218 220 221 222 222
13 9 7 8 9 6 4 1 352 343 342 343 345 347 349 340 211 185 182 189 190 186 198 241 267 269 251 221 206 203 203 202 203 205 206 206 206 204 204 204 204 204 203 203 202 202 202 204 205 206 207 206 207 209 211 214 215 216 218 220 222 223 224
9 3 2 1 359 358 360 359 352 342 335 334 334 337 339 333 316 282 233 226 212 202 207 214 220 232 242 231 210 202 201 202 203 205 206 206 205 205 205 205 205 205 203 202 202 202 202 203 203 205 207 206 206 207 209 213 215 216 217 219 222 224 224
6 1 358 355 350 351 356 352 343 336 331 329 330 331 332 331 328 324 288 246 229 216 214 215 213 214 223 227 214 202 200 201 202 204 205 205 204 205 206 206 206 205 204 203 203 203 203 203 203 205 206 206 206 206 208 212 214 216 217 219 222 223 224
3 358 352 349 347 346 348 344 337 334 331 329 330 330 331 330 327 326 313 266 233 216 209 212 217 216 219 223 214 203 200 201 201 202 203 203 204 206 206 207 206 206 204 203 204 204 203 203 204 204 205 206 206 206 208 211 214 216 217 218 220 222 222
357 356 349 346 346 344 342 339 337 334 331 329 332 333 335 334 328 323 319 300 253 223 210 209 218 221 221 220 213 204 201 201 200 201 201 202 204 206 206 207 206 206 205 205 204 204 204 204 204 205 206 207 207 207 208 209 212 215 216 218 219 220 221
348 349 346 344 344 340 337 336 335 333 331 330 332 334 335 334 329 318 307 303 293 258 226 215 217 221 222 219 212 205 202 200 199 200 200 202 204 205 205 206 206 206 206 206 206 206 204 204 204 205 207 209 210 211 211 211 212 214 216 218 218 219 220
343 342 343 343 341 337 335 335 334 332 330 329 329 331 332 330 323 311 299 296 299 289 259 233 222 219 220 219 212 206 204 201 200 200 200 202 203 204 205 205 205 205 206 207 207 207 205 204 204 206 208 209 211 213 214 216 216 215 216 218 218 219 220
342 340 341 341 337 335 335 334 333 330 327 327 327 327 329 328 317 305 302 300 294 287 279 263 239 225 220 217 211 206 204 202 201 200 201 202 201 201 203 205 205 205 205 206 207 207 206 205 204 206 208 209 211 213 215 217 218 219 219 219 219 220 220
340 338 340 339 336 335 334 331 330 328 325 326 327 325 325 324 315 304 301 298 290 284 283 281 263 239 225 216 208 205 205 203 202 201 200 200 199 199 201 204 204 204 204 204 206 207 207 206 205 205 207 209 211 213 215 217 219 220 221 221 221 221 220
331 331 336 337 334 332 330 327 327 327 325 325 326 323 321 318 311 305 300 291 287 287 285 285 277 252 229 217 210 206 204 203 202 200 199 199 198 199 200 201 203 203 203 203 204 206 207 207 205 204 205 207 210 213 215 217 219 220 221 222 223 224 223
319 323 332 334 329 326 325 323 324 325 324 326 327 324 321 316 308 303 297 290 291 293 287 284 279 254 228 217 212 207 205 203 201 199 198 198 198 198 199 200 201 202 202 203 203 205 207 207 205 203 203 205 208 211 213 216 217 220 222 222 223 225 226
313 321 330 329 325 322 320 320 323 324 321 324 328 326 322 317 308 300 296 295 298 296 289 286 278 249 223 213 209 206 203 201 199 198 198 197 196 196 197 199 200 201 201 202 203 204 206 207 206 204 203 204 206 208 210 213 215 218 220 222 223 224 226
314 325 330 327 322 320 320 320 322 323 322 321 325 329 328 322 311 299 296 299 301 297 292 290 278 244 219 210 207 204 199 196 195 196 197 196 196 197 198 198 200 201 202 202 203 205 206 206 207 207 206 205 206 207 208 210 211 215 218 220 222 223 225
315 323 326 323 321 321 321 320 320 323 324 320 321 329 332 327 319 312 306 304 302 299 299 294 274 238 214 206 202 198 195 193 192 192 194 195 196 197 199 200 201 203 203 203 204 205 206 206 207 208 208 208 208 208 208 208 209 211 215 217 219 221 223
310 318 321 320 320 321 321 317 317 322 322 318 323 331 331 326 322 319 315 309 304 305 309 297 262 227 209 201 196 192 192 192 190 189 190 193 195 197 199 201 203 204 206 206 205 203 204 205 206 207 208 209 208 207 206 207 208 209 212 215 217 219 220
302 307 313 316 317 319 320 316 317 322 321 319 327 332 330 325 323 320 314 310 307 308 314 301 250 219 206 197 192 190 190 189 188 187 189 191 195 199 201 203 206 208 210 210 209 207 205 204 206 207 208 208 208 206 203 205 208 211 214 217 219 220 220
296 300 310 314 314 318 320 318 320 325 326 326 331 333 328 324 324 320 311 309 308 306 310 305 253 215 204 195 189 187 186 187 188 188 190 193 197 200 202 203 206 210 212 213 212 212 210 209 210 211 210 210 210 210 208 210 212 213 215 219 221 222 222
289 297 309 312 312 318 322 321 322 328 331 331 333 333 326 322 322 321 315 312 312 308 305 299 264 210 193 186 184 184 184 185 188 191 194 196 197 198 199 201 205 209 210 212 213 213 213 214 215 216 215 213 213 213 214 216 218 217 217 218 219 221 222
284 290 300 304 308 318 322 321 322 328 331 332 333 331 327 322 322 326 327 322 318 315 306 294 274 228 195 183 179 179 180 181 182 188 203 214 214 207 197 194 198 206 208 210 212 212 212 213 215 217 217 216 216 215 214 215 217 219 220 219 219 220 221